Lapse_Rate
6.3 6.4 6.3 6.3 6.2 6.0 6.0 6.0 5.9 5.9 5.9 5.8 5.6 5.6 5.7 5.9 5.9 6.2 6.4 5.9 5.8 5.2 5.1 4.8 5.0 4.6 4.5 4.6 4.9 5.1 5.2 5.3 5.4 5.5 5.6 5.6 5.6 5.7 5.8 5.8 5.8 5.9 6.0
6.4 6.2 6.2 6.3 6.3 6.2 6.2 6.1 6.0 5.9 5.7 5.8 5.7 5.7 5.2 5.4 5.6 5.7 6.0 6.3 5.9 5.5 5.2 4.6 5.1 4.8 4.8 4.7 4.6 4.8 5.0 5.2 5.3 5.4 5.6 5.6 5.6 5.6 5.7 5.7 5.8 5.9 6.0
6.6 6.5 6.3 6.2 6.2 6.3 6.4 6.3 6.2 6.1 6.1 5.7 5.7 5.9 5.4 5.6 5.5 5.7 5.8 5.9 6.0 5.6 5.3 5.0 5.0 5.0 4.9 4.9 4.5 4.6 4.7 4.9 5.1 5.2 5.3 5.5 5.5 5.5 5.6 5.7 5.7 5.8 5.8
6.4 6.4 6.4 6.3 6.2 6.2 6.2 6.1 6.1 6.2 6.2 6.0 5.8 4.9 5.5 5.4 5.4 5.3 5.3 5.3 5.6 5.1 5.2 4.9 4.9 5.1 4.9 4.9 5.0 4.5 4.8 4.9 4.8 5.0 5.1 5.2 5.3 5.4 5.5 5.5 5.6 5.6 5.7
6.5 6.5 6.4 6.3 6.2 6.2 6.1 6.1 6.0 6.0 6.1 6.1 6.0 5.7 5.6 5.1 5.1 5.1 5.3 5.2 5.3 5.1 5.3 4.8 4.9 5.1 5.0 5.1 4.9 4.6 4.5 4.7 4.6 4.6 4.9 5.2 5.3 5.4 5.5 5.4 5.5 5.5 5.6
6.5 6.6 6.5 6.4 6.2 5.9 5.9 5.9 5.8 5.8 5.9 5.9 5.9 6.0 5.9 5.7 5.2 4.9 5.6 5.3 5.3 5.6 5.0 4.5 5.1 5.4 5.2 4.8 4.9 5.0 4.8 4.4 4.1 4.4 4.5 4.6 5.1 5.3 5.3 5.3 5.3 5.5 5.5
6.7 6.7 6.8 6.6 6.2 6.0 5.6 5.6 5.6 5.6 5.7 5.6 5.8 5.8 6.3 5.9 5.5 5.2 5.3 5.4 5.4 5.4 5.1 5.1 4.7 5.2 5.0 5.1 4.8 4.7 4.7 4.5 4.5 4.4 4.4 4.4 4.7 5.2 5.2 5.2 5.3 5.2 5.3
6.8 6.7 6.7 6.6 6.3 5.9 5.8 5.6 5.5 5.5 5.6 5.8 5.7 5.8 5.4 5.5 5.7 5.5 5.5 5.7 5.5 5.3 5.2 5.2 4.8 4.6 4.8 4.8 4.5 4.7 4.7 4.6 4.6 4.3 4.6 4.5 4.6 5.0 5.2 5.1 5.1 5.2 5.1
6.7 6.7 6.6 6.5 6.4 6.0 5.8 5.8 5.8 5.7 5.7 5.8 5.6 5.7 5.1 5.8 6.3 6.2 6.0 5.8 5.6 5.7 5.7 4.9 4.9 4.9 5.2 5.2 4.9 4.6 4.7 4.6 4.4 4.4 4.4 4.7 4.7 4.9 5.1 5.3 5.2 5.1 5.2
6.6 6.5 6.5 6.5 6.4 6.2 5.9 5.9 5.8 5.7 5.7 5.6 5.6 5.6 5.7 5.6 5.9 6.0 5.7 6.2 5.6 5.3 5.4 5.1 5.3 5.7 5.8 4.9 4.9 4.8 4.7 4.7 4.7 4.9 4.6 4.5 4.9 5.1 5.1 5.0 4.9 5.0 5.1
6.7 6.5 6.4 6.4 6.4 6.4 6.5 6.3 6.0 5.6 5.4 5.3 5.5 5.6 5.6 5.4 5.8 6.1 6.2 6.0 5.3 5.9 5.3 5.3 5.7 5.6 6.1 5.2 5.0 4.6 4.4 4.6 4.2 4.4 4.2 4.6 4.6 4.7 4.9 4.7 4.6 4.9 4.9
6.7 6.5 6.2 6.3 6.5 6.7 6.6 6.3 6.1 5.4 5.5 5.3 5.3 5.5 5.6 5.7 5.7 6.1 6.2 6.2 5.8 5.8 5.6 5.8 5.7 5.8 5.5 5.3 5.1 5.0 5.5 5.1 4.6 4.5 4.4 4.6 4.5 4.9 5.2 4.7 4.9 4.6 4.7
6.2 6.0 6.1 6.1 6.1 6.1 6.3 6.3 6.3 5.9 5.6 5.5 5.5 5.5 5.6 5.6 5.7 6.0 6.0 5.9 6.1 6.0 5.8 5.7 5.8 6.0 5.4 5.6 5.6 5.5 5.6 4.9 4.9 4.5 4.0 3.7 4.4 4.8 4.7 4.7 4.7 4.6 4.6
5.9 5.7 5.6 5.5 5.6 5.7 6.0 6.1 6.1 6.1 5.7 5.4 5.6 5.7 5.6 5.5 5.8 6.2 5.9 6.1 6.0 6.2 6.0 6.0 5.8 6.0 6.0 5.7 5.5 5.6 5.3 4.6 4.2 4.6 4.4 4.6 5.0 5.2 5.2 4.7 4.5 4.6 5.0
5.9 6.0 5.5 5.3 5.3 5.3 5.7 5.9 6.0 6.1 6.0 5.8 5.6 5.9 6.1 6.0 5.9 5.9 6.4 6.4 6.2 5.9 6.2 6.4 6.0 6.2 6.0 6.3 5.9 5.7 5.3 4.9 4.6 4.9 5.2 5.7 5.2 5.4 5.2 4.6 4.5 4.8 5.0
5.8 5.7 5.6 5.5 5.6 5.7 5.8 6.1 6.2 6.3 6.3 6.2 6.2 6.1 6.3 6.1 6.3 6.2 6.4 6.3 6.1 6.3 6.4 6.2 6.1 6.1 6.1 5.8 5.9 5.8 5.7 5.6 5.1 5.2 5.3 5.5 5.4 5.3 5.2 5.0 4.5 5.1 5.3
5.6 5.6 5.7 5.9 6.1 6.3 6.4 6.2 6.6 6.7 6.6 6.6 6.6 6.5 6.5 6.5 6.2 5.8 6.1 6.2 6.1 6.6 6.4 6.2 6.2 6.0 6.1 6.0 6.1 5.9 5.8 5.5 5.2 5.1 5.2 5.0 5.1 5.2 5.1 4.8 4.7 4.9 5.0
5.9 6.1 6.1 6.3 6.5 6.5 6.6 6.6 6.6 6.7 6.6 6.7 6.6 6.5 6.4 6.8 6.7 6.4 6.4 6.5 6.6 6.8 6.5 6.2 6.4 6.2 6.0 5.9 6.0 6.0 6.0 5.7 5.4 5.3 5.5 5.6 5.2 5.1 5.0 4.9 5.1 5.1 5.3
6.4 6.6 6.5 6.5 5.8 6.1 6.7 6.9 6.7 6.5 6.5 6.5 6.5 6.5 6.6 6.6 6.8 6.8 6.6 6.6 6.5 6.7 6.4 6.1 6.5 6.4 6.3 6.3 6.0 5.6 5.9 5.6 5.6 5.6 5.6 5.3 5.1 5.1 5.1 5.3 5.5 5.6 5.7
6.9 6.7 6.4 6.0 6.1 6.0 6.3 6.6 6.6 6.7 6.4 6.3 6.4 6.6 6.6 6.6 6.7 6.8 6.7 6.7 6.6 6.7 6.4 6.7 6.7 6.5 6.4 6.3 6.2 6.2 6.1 5.7 5.6 5.5 5.6 5.6 5.6 5.6 5.6 5.6 5.6 5.8 5.9
6.1 5.8 5.7 5.6 6.0 6.0 6.2 6.1 6.2 6.3 6.4 6.6 6.6 7.0 6.6 6.8 6.9 6.9 6.7 6.5 6.6 6.4 6.6 6.6 6.4 6.5 6.1 6.2 6.1 6.1 5.8 5.8 5.7 5.7 5.7 5.6 5.5 5.6 5.7 5.7 5.8 6.0 6.2
6.3 5.7 5.4 5.8 6.1 6.3 6.3 6.5 6.6 6.7 6.6 6.5 6.8 6.7 6.5 6.7 6.8 6.6 6.7 6.7 6.5 6.5 6.6 6.5 6.4 6.4 6.2 6.3 6.1 6.0 5.5 5.6 5.6 5.8 5.8 5.7 5.7 5.7 5.7 5.8 5.8 5.8 5.9
6.4 5.8 5.8 6.0 6.3 6.5 6.2 6.3 6.5 6.6 6.6 6.8 6.5 6.5 6.6 6.7 6.6 6.7 6.7 6.4 6.5 6.5 6.4 6.3 6.2 6.3 6.2 6.0 5.9 5.5 5.5 5.8 5.7 5.5 5.5 5.7 5.5 5.4 5.3 5.3 5.5 5.6 5.7
6.6 6.2 5.8 6.0 6.2 6.8 6.8 6.5 6.4 6.5 6.8 6.8 6.6 6.6 6.6 6.6 6.5 6.5 6.5 6.4 6.5 6.3 6.2 6.2 6.1 6.0 6.0 5.9 5.6 5.4 5.5 5.5 5.5 5.4 5.5 5.5 5.4 5.4 5.4 5.6 5.7 5.7 5.6
6.6 6.3 6.3 6.0 6.5 6.4 6.7 6.6 6.6 6.6 6.3 6.9 6.7 6.6 6.1 6.2 6.4 6.5 6.6 6.4 6.4 6.3 5.9 6.0 6.0 5.9 5.7 5.6 5.5 5.4 5.3 5.3 5.3 5.3 5.4 5.5 5.5 5.5 5.3 5.2 5.5 5.7 5.6
6.4 6.2 5.8 5.9 5.8 6.3 6.5 6.5 6.5 6.5 6.3 6.4 6.3 6.0 6.1 6.4 6.1 6.2 6.1 6.0 5.7 5.8 5.7 5.5 5.5 5.5 5.4 5.3 5.3 5.3 5.3 5.3 5.2 5.4 5.4 5.5 5.6 5.7 5.8 5.9 5.7 5.4 5.3
Wind_Speed
2 2 3 3 4 4 4 4 3 4 5 8 8 8 7 9 10 11 11 17 19 16 19 20 17 17 15 16 14 13 12 11 10 10 9 8 8 6 6 6 5 6 5
4 3 2 3 3 4 3 3 3 2 2 3 4 6 3 6 9 10 11 14 17 18 20 18 17 15 15 16 15 15 13 11 10 10 9 8 8 7 6 5 5 5 5
7 4 2 3 3 2 3 4 3 5 3 3 6 5 4 5 6 8 10 12 16 18 23 22 20 20 17 16 16 14 13 13 12 9 8 8 7 7 7 6 5 5 6
9 6 3 4 4 3 4 2 2 1 2 3 3 3 3 7 13 12 12 11 13 15 20 19 21 21 18 18 18 16 15 12 11 10 9 9 8 7 7 7 6 5 5
10 6 4 4 6 4 3 3 2 3 3 3 1 3 2 3 1 6 8 13 13 15 16 19 18 18 20 20 18 17 15 13 13 11 10 8 7 7 7 6 5 4 4
11 7 5 5 6 3 3 2 2 2 3 4 2 2 2 1 2 2 4 9 11 13 15 17 15 15 20 20 18 17 18 16 12 11 10 8 8 9 7 6 5 3 2
10 7 4 4 4 4 5 6 3 4 1 3 3 0 2 3 4 3 3 3 6 8 10 13 15 17 15 21 19 18 17 17 15 12 10 9 9 8 7 7 5 3 1
7 5 4 4 7 4 4 5 5 3 2 5 3 1 2 1 1 3 3 3 5 7 9 12 12 11 15 13 17 18 16 14 14 12 10 10 10 9 7 5 4 3 2
8 6 6 4 7 5 6 6 6 8 4 5 4 3 2 3 1 2 2 4 2 2 3 8 13 15 14 14 14 15 16 15 12 11 10 10 10 9 8 6 4 3 3
9 8 7 5 7 5 7 8 7 7 6 7 1 1 0 2 3 3 1 1 4 0 2 5 7 9 15 15 18 18 15 12 11 12 11 11 11 10 10 8 6 5 5
7 9 7 5 5 6 6 7 5 8 7 7 6 3 2 1 2 2 1 1 1 1 1 2 6 9 13 16 18 16 18 13 12 10 11 11 12 11 9 7 7 7 7
4 5 7 5 5 5 7 7 8 9 9 9 8 5 4 3 2 2 2 2 2 1 1 0 3 5 7 14 14 17 14 11 10 10 12 13 12 10 8 8 8 9 8
4 6 5 6 4 6 6 6 7 8 9 8 10 8 6 6 4 2 3 2 2 1 1 1 2 5 10 6 12 13 11 11 12 12 12 13 11 9 9 8 10 9 10
7 7 7 6 6 6 6 6 6 7 8 9 11 10 7 7 5 4 4 4 1 0 1 3 1 5 7 10 10 13 12 13 11 11 9 8 5 5 6 8 8 10 10
7 8 7 8 6 6 7 7 6 9 10 9 9 10 8 8 7 7 4 3 4 4 7 4 3 5 7 10 11 13 14 12 11 7 5 4 5 5 5 7 9 9 8
8 7 8 8 8 7 7 8 7 8 10 9 8 10 9 5 7 5 6 6 4 6 4 2 2 1 7 8 11 14 13 11 9 8 7 6 6 5 4 7 9 7 6
9 9 10 9 10 11 10 10 10 9 11 11 9 10 11 9 7 7 6 6 4 3 3 1 2 1 2 6 7 11 10 9 6 7 7 5 5 6 6 9 8 7 8
9 10 11 12 12 11 9 10 10 9 11 11 10 10 10 7 9 9 8 9 7 5 3 4 1 2 2 3 4 4 7 7 5 3 5 6 7 8 9 10 10 10 10
10 10 10 11 9 9 9 8 9 9 10 10 9 11 10 10 9 7 8 8 6 4 3 4 3 2 2 3 3 3 3 2 3 4 6 9 9 9 9 9 10 10 10
10 10 10 8 7 9 8 9 9 7 5 4 7 8 9 10 10 9 7 9 9 6 6 6 3 3 3 2 2 2 2 1 1 2 4 5 5 6 8 10 10 8 7
9 9 8 6 7 4 5 5 7 8 9 8 7 5 5 4 8 10 8 8 9 6 6 5 2 3 3 3 4 3 2 2 1 2 1 2 4 5 8 8 5 6 8
9 9 8 6 6 4 7 13 10 8 8 9 9 8 8 13 12 15 16 15 10 9 6 4 3 5 4 4 3 3 3 2 2 2 1 2 2 2 6 7 7 8 11
8 9 8 7 8 7 15 17 17 8 9 8 7 7 7 6 11 11 17 17 11 7 7 5 5 4 4 5 6 4 3 2 3 2 1 2 1 2 5 8 10 13 15
8 7 8 8 7 7 13 20 20 12 10 10 9 9 8 8 9 10 11 10 7 6 5 4 6 6 4 7 5 4 4 4 3 2 1 1 0 3 3 8 9 9 8
8 8 7 9 8 8 13 15 17 10 10 10 9 9 7 9 15 17 12 11 11 10 18 20 19 18 18 14 12 4 3 3 1 2 0 1 2 3 2 2 3 3 3
7 6 8 8 12 8 15 16 12 7 10 8 8 9 14 10 15 15 11 10 11 6 8 8 6 12 13 12 8 4 4 2 2 1 1 1 1 2 3 1 2 4 8
Wind_Direction
268 255 266 277 284 275 244 233 227 209 213 209 215 194 191 213 232 232 238 219 207 205 189 170 168 168 166 159 160 156 156 161 162 164 160 158 158 134 127 115 117 99 88
293 264 236 239 227 220 247 217 176 166 143 89 31 304 242 235 228 228 223 210 215 206 177 174 166 171 168 160 162 161 161 160 164 171 170 164 139 153 136 128 108 104 89
315 278 251 241 243 247 171 171 167 151 161 159 172 167 303 236 232 216 210 204 212 202 172 177 169 172 178 167 170 166 167 168 157 158 167 168 154 142 133 123 116 106 93
317 284 248 244 222 194 207 197 184 203 200 191 165 170 211 221 196 196 190 180 164 165 167 184 179 175 176 170 175 172 162 164 166 170 163 157 149 151 157 139 132 122 120
322 287 259 247 224 202 184 180 198 197 178 205 123 73 9 311 268 218 194 164 165 168 165 170 164 173 189 182 177 173 166 162 164 165 166 161 162 173 164 144 132 131 123
317 307 266 244 231 220 197 163 179 209 183 175 115 68 51 31 337 275 218 165 165 172 159 166 179 196 196 179 175 175 167 163 162 165 174 172 185 186 158 150 144 130 117
311 296 264 239 218 218 218 185 154 184 156 140 104 22 36 27 31 354 317 199 158 154 155 168 176 175 188 185 176 180 169 167 164 174 175 181 194 178 170 167 152 139 176
296 294 275 227 237 217 215 200 173 155 129 187 137 115 207 243 20 17 334 271 175 154 151 148 148 162 163 172 172 172 171 169 168 169 190 188 187 181 176 178 178 177 236
286 282 277 249 245 219 218 208 196 190 190 200 225 154 125 229 77 26 360 339 253 177 151 160 161 169 163 169 173 171 167 160 173 178 186 186 186 179 187 200 214 240 257
270 261 254 253 249 242 225 218 206 195 189 204 203 207 295 112 170 189 188 360 13 247 267 171 161 152 152 155 152 146 143 159 180 185 189 192 192 197 204 206 223 239 260
289 284 251 245 236 247 241 223 202 207 199 202 205 147 163 212 57 133 144 45 332 36 320 256 139 147 155 157 146 157 154 171 185 192 201 205 206 205 210 223 235 246 252
289 270 262 235 232 223 232 229 224 215 202 204 197 174 174 161 200 143 129 168 175 143 56 245 116 128 138 142 143 149 142 176 189 201 210 216 211 206 207 225 242 249 247
282 273 263 253 231 225 218 217 218 217 211 208 198 197 193 194 171 147 131 119 157 155 197 208 129 179 144 145 145 151 155 195 203 206 214 216 209 197 206 229 247 256 258
275 268 261 245 241 231 228 224 229 228 219 217 214 208 191 193 176 152 167 152 132 112 225 226 148 196 155 170 174 158 173 184 190 217 216 222 196 211 235 249 258 265 261
272 264 251 256 245 233 221 218 227 244 238 221 221 212 197 190 175 182 156 169 168 163 219 212 182 182 158 169 175 172 177 174 189 185 188 162 196 229 248 265 264 262 262
273 278 278 269 262 239 226 219 219 229 242 227 213 210 203 183 173 179 185 185 185 197 205 136 181 25 165 165 170 170 173 165 169 172 187 194 213 230 250 263 257 255 261
293 289 282 272 261 252 234 223 222 217 232 229 207 215 201 172 178 170 174 166 163 156 129 91 100 83 106 141 136 165 156 143 156 195 198 208 227 249 255 247 237 247 262
301 291 282 270 252 247 235 223 227 222 227 221 204 205 196 175 178 177 178 179 183 139 136 123 137 121 107 106 123 118 128 144 168 202 216 219 232 246 252 238 231 255 261
304 295 283 278 259 243 232 223 230 229 220 213 201 200 180 171 173 171 177 167 149 125 134 133 130 88 96 93 90 80 92 134 197 231 237 228 228 234 234 237 249 263 263
313 311 305 289 283 251 226 230 224 209 169 170 175 183 172 179 176 166 166 161 138 131 105 108 107 116 97 85 91 135 156 87 205 232 233 229 222 240 247 248 250 252 255
329 324 328 339 341 296 225 162 142 135 121 100 83 86 79 124 152 169 157 143 138 130 129 115 113 105 131 156 177 154 152 118 227 207 233 261 248 268 272 251 239 253 256
345 339 345 0 13 17 69 114 110 115 101 115 106 90 99 92 99 116 118 120 135 139 143 128 156 155 150 145 124 149 124 158 216 207 149 273 213 255 244 236 250 268 264
2 0 4 28 42 55 88 91 89 80 87 84 104 104 93 97 103 102 107 102 113 132 147 137 142 153 145 165 138 150 166 141 170 173 160 263 216 260 247 249 258 280 277
17 19 19 34 50 59 89 95 91 81 79 74 74 81 87 88 94 101 95 91 83 75 102 114 125 140 126 132 128 151 144 119 80 62 101 254 296 257 268 285 286 283 255
24 33 31 37 40 61 76 93 92 86 82 77 73 76 88 99 115 117 99 96 87 80 87 96 103 110 116 123 132 111 99 102 158 190 339 86 345 308 286 289 286 291 223
36 31 37 36 51 50 62 69 82 93 89 88 81 84 91 103 116 116 113 119 105 88 104 91 82 84 93 110 109 94 143 126 109 9 196 95 300 340 317 252 264 262 290